This demonstration page uses our WeatherBlox Daily Observations layout. Learn more.

Left ArrowRight Arrow

Hourly Observations for October 6, 2018

Temp ( °F °C ) Dew Point ( °F °C ) Humidity (%) Winds ( mph kmh ) Pressure ( in mb ) Visibility ( mi km ) Precip ( " mm )
12:15 am 00:15 Cloudy 48 8.9 44 6.7 86 86 N 15 24 30.06 1018 9 14.48406 0 0
12:41 am 00:41 Cloudy 47 8.3 43 6.1 86 86 N 18 30 30.06 1018 10 16.0934 0 0
12:54 am 00:54 Cloudy 47 8.3 42 5.6 83 83 N 20 31 30.02 1017 10 16.0934 0 0
1:02 am 01:02 Cloudy 47 8.3 42 5.6 83 83 N 22 35 30.03 1017 10 16.0934 0 0
1:54 am 01:54 Cloudy 47 8.3 42 5.6 83 83 N 18 30 30.06 1018 10 16.0934 0 0
2:24 am 02:24 Cloudy 47 8.3 41 5 80 80 N 21 33 30.09 1019 10 16.0934 0 0
2:54 am 02:54 Mostly Cloudy 47 8.3 41 5 80 80 NNE 14 22 30.07 1018 10 16.0934 0 0
3:54 am 03:54 Cloudy 46 7.8 40 4.4 79 79 N 17 28 30.07 1018 10 16.0934 0 0
4:54 am 04:54 Cloudy 45 7.2 40 4.4 83 83 N 20 31 30.08 1019 10 16.0934 0 0
5:49 am 05:49 Cloudy 46 8 39 4 76 76 NW 13 20 30.18 1022 10 16.0934 0 0
5:54 am 05:54 Cloudy with Light Rain 45 7.2 40 4.4 83 83 N 14 22 30.12 1020 10 16.0934 0 0.0254
6:07 am 06:07 Cloudy with Light Rain 45 7.2 40 4.4 83 83 N 15 24 30.12 1020 10 16.0934 0 0.0254
6:54 am 06:54 Clear 44 6.7 39 3.9 83 83 N 15 24 30.08 1019 10 16.0934 0 0.0254
7:54 am 07:54 Cloudy 45 7.2 38 3.3 77 77 NNW 14 22 30.14 1021 10 16.0934 0 0
8:40 am 08:40 Cloudy 44 6.7 38 3.3 79 79 N 16 26 30.18 1022 10 16.0934 0 0
8:54 am 08:54 Cloudy 44 6.7 37 2.8 76 76 N 13 20 30.16 1021 10 16.0934 0 0
9:54 am 09:54 Cloudy 44 6.7 37 2.8 76 76 N 13 20 30.15 1021 10 16.0934 0 0
10:54 am 10:54 Cloudy 46 7.8 39 3.9 77 77 N 18 30 30.16 1021 10 16.0934 0 0
11:54 am 11:54 Cloudy 47 8.3 40 4.4 77 77 NNE 14 22 30.17 1022 10 16.0934 0 0
12:33 pm 12:33 Cloudy 49 9.4 40 4.4 71 71 NNE 10 17 30.21 1023 10 16.0934 0 0
12:54 pm 12:54 Cloudy 49 9.4 40 4.4 71 71 NNE 12 19 30.19 1022 10 16.0934 0 0
1:54 pm 13:54 Cloudy 49 9.4 39 3.9 69 69 NNE 13 20 30.17 1022 10 16.0934 0 0
2:02 pm 14:02 Cloudy 48 8.9 39 3.9 71 71 N 10 17 30.18 1022 10 16.0934 0 0
2:54 pm 14:54 Cloudy 50 10 40 4.4 68 68 NNE 12 19 30.14 1021 10 16.0934 0 0
3:54 pm 15:54 Cloudy 51 10.6 40 4.4 66 66 NE 14 22 30.12 1020 10 16.0934 0 0
4:54 pm 16:54 Cloudy 51 10.6 41 5 69 69 ENE 13 20 30.14 1021 10 16.0934 0 0
5:54 pm 17:54 Cloudy 49 9.4 41 5 74 74 NE 9 15 30.14 1021 10 16.0934 0 0
6:54 pm 18:54 Cloudy 49 9.4 41 5 74 74 NE 8 13 30.13 1020 10 16.0934 0 0
7:54 pm 19:54 Cloudy 49 9.4 41 5 74 74 ENE 8 13 30.15 1021 10 16.0934 0 0
8:54 pm 20:54 Cloudy 49 9.4 41 5 74 74 NE 8 13 30.15 1021 10 16.0934 0 0
9:54 pm 21:54 Cloudy 49 9.4 41 5 74 74 E 9 15 30.15 1021 10 16.0934 0 0
10:50 pm 22:50 Cloudy 48 9 41 5 76 76 ENE 9 15 30.15 1021 10 16.0934 0 0
10:54 pm 22:54 Cloudy 49 9.4 41 5 74 74 ENE 9 15 30.14 1021 10 16.0934 0 0
11:54 pm 23:54 Cloudy 48 8.9 41 5 77 77 ENE 8 13 30.16 1022 10 16.0934 0 0

Powered by AerisWeather